AEHF-1 (USA 214)

Last updated on Fri Dec 19 2025 00:02:50 GMT+0000 (Coordinated Universal Time)

1 36868U 10039A 25351.82891973 .00000166 00000+0 00000+0 0 9998 2 36868 7.7741 70.3792 0004498 193.4255 151.2660 1.00269062 51835
UTC large
Height (km)
Speed (km/s)
/
Latitude / Longitude
Inclination (degrees)
Orbital Period (minutes)
Azimuth
Elevation
Range (km)
Doppler Factor

Next 0 passes for location: London (51.5072 / 0.1276)

Sorry there are no passes over London.